Year,Month,Day,Hour,Minute,Value (Times are PST for temperature in C)
2009,04,23,00,00,6.60
2009,04,23,00,01,6.60
2009,04,23,00,02,6.60
2009,04,23,00,03,6.60
2009,04,23,00,04,6.60
2009,04,23,00,05,6.50
2009,04,23,00,06,6.40
2009,04,23,00,07,6.40
2009,04,23,00,08,6.40
2009,04,23,00,09,6.40
2009,04,23,00,10,6.40
2009,04,23,00,11,6.40
2009,04,23,00,12,6.40
2009,04,23,00,13,6.40
2009,04,23,00,14,6.40
2009,04,23,00,15,6.40
2009,04,23,00,16,6.30
2009,04,23,00,17,6.30
2009,04,23,00,18,6.30
2009,04,23,00,19,6.30
2009,04,23,00,20,6.30
2009,04,23,00,21,6.30
2009,04,23,00,22,6.30
2009,04,23,00,23,6.30
2009,04,23,00,24,6.30
2009,04,23,00,25,6.30
2009,04,23,00,26,6.30
2009,04,23,00,27,6.30
2009,04,23,00,28,6.40
2009,04,23,00,29,6.40
2009,04,23,00,30,6.40
2009,04,23,00,31,6.40
2009,04,23,00,32,6.40
2009,04,23,00,33,6.40
2009,04,23,00,34,6.40
2009,04,23,00,35,6.40
2009,04,23,00,36,6.40
2009,04,23,00,37,6.40
2009,04,23,00,38,6.40
2009,04,23,00,39,6.40
2009,04,23,00,40,6.40
2009,04,23,00,41,6.40
2009,04,23,00,42,6.50
2009,04,23,00,43,6.60
2009,04,23,00,44,6.60
2009,04,23,00,45,6.60
2009,04,23,00,46,6.60
2009,04,23,00,47,6.60
2009,04,23,00,48,6.60
2009,04,23,00,49,6.60
2009,04,23,00,50,6.60
2009,04,23,00,51,6.60
2009,04,23,00,52,6.60
2009,04,23,00,53,6.60
2009,04,23,00,54,6.60
2009,04,23,00,55,6.60
2009,04,23,00,56,6.60
2009,04,23,00,57,6.60
2009,04,23,00,58,6.60
2009,04,23,00,59,6.60
2009,04,23,01,00,6.60
2009,04,23,01,01,6.60
2009,04,23,01,02,6.60
2009,04,23,01,03,6.60
2009,04,23,01,04,6.60
2009,04,23,01,05,6.60
2009,04,23,01,06,6.60
2009,04,23,01,07,6.60
2009,04,23,01,08,6.60
2009,04,23,01,09,6.60
2009,04,23,01,10,6.60
2009,04,23,01,11,6.60
2009,04,23,01,12,6.60
2009,04,23,01,13,6.60
2009,04,23,01,14,6.60
2009,04,23,01,15,6.70
2009,04,23,01,16,6.70
2009,04,23,01,17,6.70
2009,04,23,01,18,6.70
2009,04,23,01,19,6.70
2009,04,23,01,20,6.70
2009,04,23,01,21,6.70
2009,04,23,01,22,6.70
2009,04,23,01,23,6.70
2009,04,23,01,24,6.70
2009,04,23,01,25,6.80
2009,04,23,01,26,6.80
2009,04,23,01,27,6.80
2009,04,23,01,28,6.80
2009,04,23,01,29,6.80
2009,04,23,01,30,6.80
2009,04,23,01,31,6.80
2009,04,23,01,32,6.80
2009,04,23,01,33,6.80
2009,04,23,01,34,6.80
2009,04,23,01,35,6.80
2009,04,23,01,36,6.80
2009,04,23,01,37,6.80
2009,04,23,01,38,6.80
2009,04,23,01,39,6.80
2009,04,23,01,40,6.80
2009,04,23,01,41,6.80
2009,04,23,01,42,6.80
2009,04,23,01,43,6.80
2009,04,23,01,44,6.80
2009,04,23,01,45,6.80
2009,04,23,01,46,6.80
2009,04,23,01,47,6.80
2009,04,23,01,48,6.80
2009,04,23,01,49,6.80
2009,04,23,01,50,6.80
2009,04,23,01,51,6.90
2009,04,23,01,52,6.90
2009,04,23,01,53,6.80
2009,04,23,01,54,6.80
2009,04,23,01,55,6.80
2009,04,23,01,56,6.80
2009,04,23,01,57,6.80
2009,04,23,01,58,6.80
2009,04,23,01,59,6.80
2009,04,23,02,00,6.80
2009,04,23,02,01,6.80
2009,04,23,02,02,6.80
2009,04,23,02,03,6.90
2009,04,23,02,04,6.90
2009,04,23,02,05,6.90
2009,04,23,02,06,6.90
2009,04,23,02,07,6.90
2009,04,23,02,08,6.90
2009,04,23,02,09,6.90
2009,04,23,02,10,6.90
2009,04,23,02,11,7.00
2009,04,23,02,12,7.00
2009,04,23,02,13,7.00
2009,04,23,02,14,7.00
2009,04,23,02,15,7.00
2009,04,23,02,16,7.00
2009,04,23,02,17,7.00
2009,04,23,02,18,7.00
2009,04,23,02,19,7.00
2009,04,23,02,20,7.00
2009,04,23,02,21,7.00
2009,04,23,02,22,7.00
2009,04,23,02,23,7.00
2009,04,23,02,24,7.00
2009,04,23,02,25,7.00
2009,04,23,02,26,7.00
2009,04,23,02,27,7.00
2009,04,23,02,28,7.00
2009,04,23,02,29,7.00
2009,04,23,02,30,7.00
2009,04,23,02,31,7.00
2009,04,23,02,32,7.00
2009,04,23,02,33,7.00
2009,04,23,02,34,7.00
2009,04,23,02,35,7.00
2009,04,23,02,36,7.00
2009,04,23,02,37,6.90
2009,04,23,02,38,6.90
2009,04,23,02,39,6.90
2009,04,23,02,40,6.80
2009,04,23,02,41,6.80
2009,04,23,02,42,6.80
2009,04,23,02,43,6.80
2009,04,23,02,44,6.70
2009,04,23,02,45,6.70
2009,04,23,02,46,6.60
2009,04,23,02,47,6.60
2009,04,23,02,48,6.60
2009,04,23,02,49,6.60
2009,04,23,02,50,6.50
2009,04,23,02,51,6.40
2009,04,23,02,52,6.40
2009,04,23,02,53,6.40
2009,04,23,02,54,6.30
2009,04,23,02,55,6.30
2009,04,23,02,56,6.20
2009,04,23,02,57,6.20
2009,04,23,02,58,6.20
2009,04,23,02,59,6.20
2009,04,23,03,00,6.20
2009,04,23,03,01,6.10
2009,04,23,03,02,6.10
2009,04,23,03,03,6.10
2009,04,23,03,04,6.00
2009,04,23,03,05,6.00
2009,04,23,03,06,6.00
2009,04,23,03,07,5.90
2009,04,23,03,08,5.90
2009,04,23,03,09,5.90
2009,04,23,03,10,5.80
2009,04,23,03,11,5.80
2009,04,23,03,12,5.80
2009,04,23,03,13,5.70
2009,04,23,03,14,5.70
2009,04,23,03,15,5.70
2009,04,23,03,16,5.70
2009,04,23,03,17,5.60
2009,04,23,03,18,5.60
2009,04,23,03,19,5.60
2009,04,23,03,20,5.60
2009,04,23,03,21,5.50
2009,04,23,03,22,5.50
2009,04,23,03,23,5.50
2009,04,23,03,24,5.50
2009,04,23,03,25,5.50
2009,04,23,03,26,5.40
2009,04,23,03,27,5.40
2009,04,23,03,28,5.40
2009,04,23,03,29,5.40
2009,04,23,03,30,5.40
2009,04,23,03,31,5.40
2009,04,23,03,32,5.40
2009,04,23,03,33,5.40
2009,04,23,03,34,5.30
2009,04,23,03,35,5.30
2009,04,23,03,36,5.30
2009,04,23,03,37,5.30
2009,04,23,03,38,5.30
2009,04,23,03,39,5.20
2009,04,23,03,40,5.10
2009,04,23,03,41,5.10
2009,04,23,03,42,5.10
2009,04,23,03,43,5.10
2009,04,23,03,44,5.00
2009,04,23,03,45,4.90
2009,04,23,03,46,4.90
2009,04,23,03,47,4.90
2009,04,23,03,48,4.90
2009,04,23,03,49,4.80
2009,04,23,03,50,4.80
2009,04,23,03,51,4.70
2009,04,23,03,52,4.70
2009,04,23,03,53,4.70
2009,04,23,03,54,4.60
2009,04,23,03,55,4.60
2009,04,23,03,56,4.60
2009,04,23,03,57,4.60
2009,04,23,03,58,4.60
2009,04,23,03,59,4.60
2009,04,23,04,00,4.60
2009,04,23,04,01,4.60
2009,04,23,04,02,4.50
2009,04,23,04,03,4.50
2009,04,23,04,04,4.50
2009,04,23,04,05,4.50
2009,04,23,04,06,4.50
2009,04,23,04,07,4.50
2009,04,23,04,08,4.50
2009,04,23,04,09,4.50
2009,04,23,04,10,4.50
2009,04,23,04,11,4.50
2009,04,23,04,12,4.50
2009,04,23,04,13,4.60
2009,04,23,04,14,4.60
2009,04,23,04,15,4.70
2009,04,23,04,16,4.70
2009,04,23,04,17,4.70
2009,04,23,04,18,4.80
2009,04,23,04,19,4.80
2009,04,23,04,20,4.80
2009,04,23,04,21,4.80
2009,04,23,04,22,4.80
2009,04,23,04,23,4.80
2009,04,23,04,24,4.80
2009,04,23,04,25,4.90
2009,04,23,04,26,4.90
2009,04,23,04,27,4.90
2009,04,23,04,28,4.80
2009,04,23,04,29,4.80
2009,04,23,04,30,4.70
2009,04,23,04,31,4.70
2009,04,23,04,32,4.70
2009,04,23,04,33,4.60
2009,04,23,04,34,4.60
2009,04,23,04,35,4.60
2009,04,23,04,36,4.50
2009,04,23,04,37,4.50
2009,04,23,04,38,4.50
2009,04,23,04,39,4.50
2009,04,23,04,40,4.50
2009,04,23,04,41,4.40
2009,04,23,04,42,4.40
2009,04,23,04,43,4.40
2009,04,23,04,44,4.40
2009,04,23,04,45,4.30
2009,04,23,04,46,4.30
2009,04,23,04,47,4.30
2009,04,23,04,48,4.20
2009,04,23,04,49,4.20
2009,04,23,04,50,4.20
2009,04,23,04,51,4.10
2009,04,23,04,52,4.10
2009,04,23,04,53,4.00
2009,04,23,04,54,4.00
2009,04,23,04,55,3.90
2009,04,23,04,56,3.90
2009,04,23,04,57,3.80
2009,04,23,04,58,3.80
2009,04,23,04,59,3.80
2009,04,23,05,00,3.80
2009,04,23,05,01,3.80
2009,04,23,05,02,3.80
2009,04,23,05,03,3.80
2009,04,23,05,04,3.80
2009,04,23,05,05,3.80
2009,04,23,05,06,3.80
2009,04,23,05,07,3.80
2009,04,23,05,08,3.80
2009,04,23,05,09,3.70
2009,04,23,05,10,3.70
2009,04,23,05,11,3.70
2009,04,23,05,12,3.70
2009,04,23,05,13,3.70
2009,04,23,05,14,3.60
2009,04,23,05,15,3.60
2009,04,23,05,16,3.60
2009,04,23,05,17,3.60
2009,04,23,05,18,3.60
2009,04,23,05,19,3.60
2009,04,23,05,20,3.60
2009,04,23,05,21,3.60
2009,04,23,05,22,3.60
2009,04,23,05,23,3.60
2009,04,23,05,24,3.50
2009,04,23,05,25,3.50
2009,04,23,05,26,3.50
2009,04,23,05,27,3.40
2009,04,23,05,28,3.40
2009,04,23,05,29,3.40
2009,04,23,05,30,3.30
2009,04,23,05,31,3.30
2009,04,23,05,32,3.30
2009,04,23,05,33,3.30
2009,04,23,05,34,3.30
2009,04,23,05,35,3.30
2009,04,23,05,36,3.30
2009,04,23,05,37,3.30
2009,04,23,05,38,3.30
2009,04,23,05,39,3.30
2009,04,23,05,40,3.20
2009,04,23,05,41,3.20
2009,04,23,05,42,3.20
2009,04,23,05,43,3.20
2009,04,23,05,44,3.20
2009,04,23,05,45,3.10
2009,04,23,05,46,3.10
2009,04,23,05,47,3.10
2009,04,23,05,48,3.10
2009,04,23,05,49,3.10
2009,04,23,05,50,3.10
2009,04,23,05,51,3.10
2009,04,23,05,52,3.10
2009,04,23,05,53,3.00
2009,04,23,05,54,2.90
2009,04,23,05,55,2.90
2009,04,23,05,56,2.90
2009,04,23,05,57,2.90
2009,04,23,05,58,2.90
2009,04,23,05,59,2.90
2009,04,23,06,00,2.90
2009,04,23,06,01,2.90
2009,04,23,06,02,2.90
2009,04,23,06,03,2.90
2009,04,23,06,04,2.90
2009,04,23,06,05,2.90
2009,04,23,06,06,2.90
2009,04,23,06,07,2.80
2009,04,23,06,08,2.80
2009,04,23,06,09,2.80
2009,04,23,06,10,2.80
2009,04,23,06,11,2.80
2009,04,23,06,12,2.80
2009,04,23,06,13,2.80
2009,04,23,06,14,2.70
2009,04,23,06,15,2.70
2009,04,23,06,16,2.70
2009,04,23,06,17,2.70
2009,04,23,06,18,2.70
2009,04,23,06,19,2.70
2009,04,23,06,20,2.70
2009,04,23,06,21,2.70
2009,04,23,06,22,2.70
2009,04,23,06,23,2.70
2009,04,23,06,24,2.70
2009,04,23,06,25,2.60
2009,04,23,06,26,2.60
2009,04,23,06,27,2.60
2009,04,23,06,28,2.60
2009,04,23,06,29,2.60
2009,04,23,06,30,2.60
2009,04,23,06,31,2.60
2009,04,23,06,32,2.60
2009,04,23,06,33,2.60
2009,04,23,06,34,2.60
2009,04,23,06,35,2.60
2009,04,23,06,36,2.60
2009,04,23,06,37,2.60
2009,04,23,06,38,2.60
2009,04,23,06,39,2.60
2009,04,23,06,40,2.60
2009,04,23,06,41,2.70
2009,04,23,06,42,2.70
2009,04,23,06,43,2.70
2009,04,23,06,44,2.70
2009,04,23,06,45,2.70
2009,04,23,06,46,2.70
2009,04,23,06,47,2.70
2009,04,23,06,48,2.70
2009,04,23,06,49,2.70
2009,04,23,06,50,2.70
2009,04,23,06,51,2.70
2009,04,23,06,52,2.70
2009,04,23,06,53,2.70
2009,04,23,06,54,2.70
2009,04,23,06,55,2.70
2009,04,23,06,56,2.70
2009,04,23,06,57,2.70
2009,04,23,06,58,2.70
2009,04,23,06,59,2.70
2009,04,23,07,00,2.70
2009,04,23,07,01,2.80
2009,04,23,07,02,2.80
2009,04,23,07,03,2.90
2009,04,23,07,04,2.90
2009,04,23,07,05,3.10
2009,04,23,07,06,3.10
2009,04,23,07,07,3.20
2009,04,23,07,08,3.20
2009,04,23,07,09,3.30
2009,04,23,07,10,3.40
2009,04,23,07,11,3.40
2009,04,23,07,12,3.40
2009,04,23,07,13,3.50
2009,04,23,07,14,3.50
2009,04,23,07,15,3.60
2009,04,23,07,16,3.70
2009,04,23,07,17,3.80
2009,04,23,07,18,3.80
2009,04,23,07,19,3.80
2009,04,23,07,20,3.80
2009,04,23,07,21,3.90
2009,04,23,07,22,3.90
2009,04,23,07,23,3.90
2009,04,23,07,24,4.00
2009,04,23,07,25,4.00
2009,04,23,07,26,4.00
2009,04,23,07,27,4.00
2009,04,23,07,28,4.10
2009,04,23,07,29,4.30
2009,04,23,07,30,4.40
2009,04,23,07,31,4.50
2009,04,23,07,32,4.60
2009,04,23,07,33,4.70
2009,04,23,07,34,4.80
2009,04,23,07,35,4.80
2009,04,23,07,36,4.90
2009,04,23,07,37,5.00
2009,04,23,07,38,5.10
2009,04,23,07,39,5.10
2009,04,23,07,40,5.10
2009,04,23,07,41,5.10
2009,04,23,07,42,5.10
2009,04,23,07,43,5.10
2009,04,23,07,44,5.20
2009,04,23,07,45,5.30
2009,04,23,07,46,5.30
2009,04,23,07,47,5.40
2009,04,23,07,48,5.40
2009,04,23,07,49,5.50
2009,04,23,07,50,5.60
2009,04,23,07,51,5.70
2009,04,23,07,52,5.70
2009,04,23,07,53,5.80
2009,04,23,07,54,5.90
2009,04,23,07,55,6.00
2009,04,23,07,56,6.00
2009,04,23,07,57,6.10
2009,04,23,07,58,6.20
2009,04,23,07,59,6.20
2009,04,23,08,00,6.30
2009,04,23,08,01,6.30
2009,04,23,08,02,6.30
2009,04,23,08,03,6.40
2009,04,23,08,04,6.40
2009,04,23,08,05,6.50
2009,04,23,08,06,6.60
2009,04,23,08,07,6.60
2009,04,23,08,08,6.60
2009,04,23,08,09,6.70
2009,04,23,08,10,6.80
2009,04,23,08,11,6.90
2009,04,23,08,12,6.90
2009,04,23,08,13,7.00
2009,04,23,08,14,7.10
2009,04,23,08,15,7.20
2009,04,23,08,16,7.30
2009,04,23,08,17,7.40
2009,04,23,08,18,7.50
2009,04,23,08,19,7.50
2009,04,23,08,20,7.60
2009,04,23,08,21,7.70
2009,04,23,08,22,7.80
2009,04,23,08,23,7.80
2009,04,23,08,24,7.90
2009,04,23,08,25,7.90
2009,04,23,08,26,7.90
2009,04,23,08,27,8.00
2009,04,23,08,28,8.10
2009,04,23,08,29,8.10
2009,04,23,08,30,8.20
2009,04,23,08,31,8.20
2009,04,23,08,32,8.20
2009,04,23,08,33,8.30
2009,04,23,08,34,8.30
2009,04,23,08,35,8.30
2009,04,23,08,36,8.40
2009,04,23,08,37,8.40
2009,04,23,08,38,8.50
2009,04,23,08,39,8.60
2009,04,23,08,40,8.80
2009,04,23,08,41,8.90
2009,04,23,08,42,9.10
2009,04,23,08,43,9.20
2009,04,23,08,44,9.30
2009,04,23,08,45,9.30
2009,04,23,08,46,9.40
2009,04,23,08,47,9.40
2009,04,23,08,48,9.40
2009,04,23,08,49,9.30
2009,04,23,08,50,9.30
2009,04,23,08,51,9.20
2009,04,23,08,52,9.30
2009,04,23,08,53,9.30
2009,04,23,08,54,9.40
2009,04,23,08,55,9.40
2009,04,23,08,56,9.40
2009,04,23,08,57,9.30
2009,04,23,08,58,9.20
2009,04,23,08,59,9.20
2009,04,23,09,00,9.20
2009,04,23,09,01,9.30
2009,04,23,09,02,9.40
2009,04,23,09,03,9.50
2009,04,23,09,04,9.50
2009,04,23,09,05,9.60
2009,04,23,09,06,9.50
2009,04,23,09,07,9.40
2009,04,23,09,08,9.30
2009,04,23,09,09,9.40
2009,04,23,09,10,9.40
2009,04,23,09,11,9.40
2009,04,23,09,12,9.40
2009,04,23,09,13,9.50
2009,04,23,09,14,9.60
2009,04,23,09,15,9.70
2009,04,23,09,16,9.80
2009,04,23,09,17,9.90
2009,04,23,09,18,10.00
2009,04,23,09,19,10.10
2009,04,23,09,20,10.10
2009,04,23,09,21,10.20
2009,04,23,09,22,10.30
2009,04,23,09,23,10.30
2009,04,23,09,24,10.20
2009,04,23,09,25,10.20
2009,04,23,09,26,10.00
2009,04,23,09,27,9.90
2009,04,23,09,28,9.80
2009,04,23,09,29,9.80
2009,04,23,09,30,9.70
2009,04,23,09,31,9.70
2009,04,23,09,32,9.60
2009,04,23,09,33,9.60
2009,04,23,09,34,9.60
2009,04,23,09,35,9.60
2009,04,23,09,36,9.60
2009,04,23,09,37,9.60
2009,04,23,09,38,9.70
2009,04,23,09,39,9.70
2009,04,23,09,40,9.70
2009,04,23,09,41,9.70
2009,04,23,09,42,9.70
2009,04,23,09,43,9.70
2009,04,23,09,44,9.60
2009,04,23,09,45,9.60
2009,04,23,09,46,9.60
2009,04,23,09,47,9.50
2009,04,23,09,48,9.40
2009,04,23,09,49,9.30
2009,04,23,09,50,9.20
2009,04,23,09,51,9.20
2009,04,23,09,52,9.30
2009,04,23,09,53,9.30
2009,04,23,09,54,9.40
2009,04,23,09,55,9.40
2009,04,23,09,56,9.50
2009,04,23,09,57,9.40
2009,04,23,09,58,9.40
2009,04,23,09,59,9.40
2009,04,23,10,00,9.40
2009,04,23,10,01,9.40
2009,04,23,10,02,9.40
2009,04,23,10,03,9.30
2009,04,23,10,04,9.30
2009,04,23,10,05,9.30
2009,04,23,10,06,9.30
2009,04,23,10,07,9.40
2009,04,23,10,08,9.30
2009,04,23,10,09,9.40
2009,04,23,10,10,9.50
2009,04,23,10,11,9.60
2009,04,23,10,12,9.50
2009,04,23,10,13,9.30
2009,04,23,10,14,9.20
2009,04,23,10,15,9.20
2009,04,23,10,16,9.20
2009,04,23,10,17,9.20
2009,04,23,10,18,9.30
2009,04,23,10,19,9.30
2009,04,23,10,20,9.20
2009,04,23,10,21,9.20
2009,04,23,10,22,9.20
2009,04,23,10,23,9.30
2009,04,23,10,24,9.30
2009,04,23,10,25,9.20
2009,04,23,10,26,9.40
2009,04,23,10,27,9.40
2009,04,23,10,28,9.40
2009,04,23,10,29,9.40
2009,04,23,10,30,9.40
2009,04,23,10,31,9.30
2009,04,23,10,32,9.30
2009,04,23,10,33,9.30
2009,04,23,10,34,9.30
2009,04,23,10,35,9.50
2009,04,23,10,36,9.50
2009,04,23,10,37,9.50
2009,04,23,10,38,9.40
2009,04,23,10,39,9.30
2009,04,23,10,40,9.20
2009,04,23,10,41,9.20
2009,04,23,10,42,9.30
2009,04,23,10,43,9.40
2009,04,23,10,44,9.30
2009,04,23,10,45,9.30
2009,04,23,10,46,9.30
2009,04,23,10,47,9.30
2009,04,23,10,48,9.20
2009,04,23,10,49,9.20
2009,04,23,10,50,9.20
2009,04,23,10,51,9.30
2009,04,23,10,52,9.40
2009,04,23,10,53,9.40
2009,04,23,10,54,9.30
2009,04,23,10,55,9.20
2009,04,23,10,56,9.20
2009,04,23,10,57,9.30
2009,04,23,10,58,9.30
2009,04,23,10,59,9.20
2009,04,23,11,00,9.20
2009,04,23,11,01,9.20
2009,04,23,11,02,9.40
2009,04,23,11,03,9.40
2009,04,23,11,04,9.50
2009,04,23,11,05,9.50
2009,04,23,11,06,9.50
2009,04,23,11,07,9.60
2009,04,23,11,08,9.50
2009,04,23,11,09,9.40
2009,04,23,11,10,9.40
2009,04,23,11,11,9.40
2009,04,23,11,12,9.40
2009,04,23,11,13,9.40
2009,04,23,11,14,9.50
2009,04,23,11,15,9.50
2009,04,23,11,16,9.50
2009,04,23,11,17,9.40
2009,04,23,11,18,9.50
2009,04,23,11,19,9.60
2009,04,23,11,20,9.70
2009,04,23,11,21,9.80
2009,04,23,11,22,9.90
2009,04,23,11,23,9.80
2009,04,23,11,24,9.70
2009,04,23,11,25,9.90
2009,04,23,11,26,9.90
2009,04,23,11,27,9.90
2009,04,23,11,28,10.10
2009,04,23,11,29,10.00
2009,04,23,11,30,9.80
2009,04,23,11,31,9.70
2009,04,23,11,32,9.60
2009,04,23,11,33,9.60
2009,04,23,11,34,9.50
2009,04,23,11,35,9.40
2009,04,23,11,36,9.30
2009,04,23,11,37,9.20
2009,04,23,11,38,9.20
2009,04,23,11,39,9.20
2009,04,23,11,40,9.20
2009,04,23,11,41,9.10
2009,04,23,11,42,9.10
2009,04,23,11,43,9.10
2009,04,23,11,44,9.10
2009,04,23,11,45,9.10
2009,04,23,11,46,9.20
2009,04,23,11,47,9.20
2009,04,23,11,48,9.20
2009,04,23,11,49,9.20
2009,04,23,11,50,9.20
2009,04,23,11,51,9.20
2009,04,23,11,52,9.20
2009,04,23,11,53,9.20
2009,04,23,11,54,9.20
2009,04,23,11,55,9.30
2009,04,23,11,56,9.30
2009,04,23,11,57,9.30
2009,04,23,11,58,9.30
2009,04,23,11,59,9.30
2009,04,23,12,00,9.20
2009,04,23,12,01,9.20
2009,04,23,12,02,9.10
2009,04,23,12,03,9.10
2009,04,23,12,04,9.10
2009,04,23,12,05,9.20
2009,04,23,12,06,9.20
2009,04,23,12,07,9.30
2009,04,23,12,08,9.40
2009,04,23,12,09,9.40
2009,04,23,12,10,9.50
2009,04,23,12,11,9.60
2009,04,23,12,12,9.70
2009,04,23,12,13,9.70
2009,04,23,12,14,9.70
2009,04,23,12,15,9.80
2009,04,23,12,16,9.90
2009,04,23,12,17,10.00
2009,04,23,12,18,10.10
2009,04,23,12,19,10.30
2009,04,23,12,20,10.50
2009,04,23,12,21,10.70
2009,04,23,12,22,10.70
2009,04,23,12,23,10.70
2009,04,23,12,24,10.70
2009,04,23,12,25,10.60
2009,04,23,12,26,10.60
2009,04,23,12,27,10.60
2009,04,23,12,28,10.60
2009,04,23,12,29,10.60
2009,04,23,12,30,10.60
2009,04,23,12,31,10.60
2009,04,23,12,32,10.60
2009,04,23,12,33,10.70
2009,04,23,12,34,10.70
2009,04,23,12,35,10.80
2009,04,23,12,36,10.90
2009,04,23,12,37,10.80
2009,04,23,12,38,10.70
2009,04,23,12,39,10.40
2009,04,23,12,40,10.30
2009,04,23,12,41,10.30
2009,04,23,12,42,10.20
2009,04,23,12,43,10.10
2009,04,23,12,44,10.10
2009,04,23,12,45,10.30
2009,04,23,12,46,10.30
2009,04,23,12,47,10.20
2009,04,23,12,48,10.10
2009,04,23,12,49,9.90
2009,04,23,12,50,9.80
2009,04,23,12,51,9.60
2009,04,23,12,52,9.50
2009,04,23,12,53,9.60
2009,04,23,12,54,9.60
2009,04,23,12,55,9.70
2009,04,23,12,56,9.90
2009,04,23,12,57,9.90
2009,04,23,12,58,9.90
2009,04,23,12,59,9.90
2009,04,23,13,00,9.90
2009,04,23,13,01,9.90
2009,04,23,13,02,9.90
2009,04,23,13,03,9.80
2009,04,23,13,04,9.80
2009,04,23,13,05,9.70
2009,04,23,13,06,9.70
2009,04,23,13,07,9.70
2009,04,23,13,08,9.70
2009,04,23,13,09,9.70
2009,04,23,13,10,9.60
2009,04,23,13,11,9.50
2009,04,23,13,12,9.50
2009,04,23,13,13,9.40
2009,04,23,13,14,9.40
2009,04,23,13,15,9.40
2009,04,23,13,16,9.40
2009,04,23,13,17,9.40
2009,04,23,13,18,9.40
2009,04,23,13,19,9.40
2009,04,23,13,20,9.50
2009,04,23,13,21,9.60
2009,04,23,13,22,9.70
2009,04,23,13,23,9.80
2009,04,23,13,24,9.90
2009,04,23,13,25,9.90
2009,04,23,13,26,9.90
2009,04,23,13,27,9.90
2009,04,23,13,28,9.90
2009,04,23,13,29,9.90
2009,04,23,13,30,9.90
2009,04,23,13,31,9.90
2009,04,23,13,32,9.90
2009,04,23,13,33,9.80
2009,04,23,13,34,9.70
2009,04,23,13,35,9.70
2009,04,23,13,36,9.70
2009,04,23,13,37,9.60
2009,04,23,13,38,9.60
2009,04,23,13,39,9.60
2009,04,23,13,40,9.70
2009,04,23,13,41,9.70
2009,04,23,13,42,9.70
2009,04,23,13,43,9.70
2009,04,23,13,44,9.70
2009,04,23,13,45,9.70
2009,04,23,13,46,9.70
2009,04,23,13,47,9.60
2009,04,23,13,48,9.60
2009,04,23,13,49,9.60
2009,04,23,13,50,9.70
2009,04,23,13,51,9.70
2009,04,23,13,52,9.80
2009,04,23,13,53,9.90
2009,04,23,13,54,9.90
2009,04,23,13,55,9.90
2009,04,23,13,56,9.90
2009,04,23,13,57,9.90
2009,04,23,13,58,9.90
2009,04,23,13,59,10.00
2009,04,23,14,00,10.10
2009,04,23,14,01,10.10
2009,04,23,14,02,10.20
2009,04,23,14,03,10.20
2009,04,23,14,04,10.20
2009,04,23,14,05,10.20
2009,04,23,14,06,10.30
2009,04,23,14,07,10.30
2009,04,23,14,08,10.30
2009,04,23,14,09,10.50
2009,04,23,14,10,10.60
2009,04,23,14,11,10.60
2009,04,23,14,12,10.60
2009,04,23,14,13,10.60
2009,04,23,14,14,10.80
2009,04,23,14,15,10.80
2009,04,23,14,16,10.90
2009,04,23,14,17,11.10
2009,04,23,14,18,11.20
2009,04,23,14,19,11.10
2009,04,23,14,20,11.10
2009,04,23,14,21,11.10
2009,04,23,14,22,11.10
2009,04,23,14,23,11.20
2009,04,23,14,24,11.10
2009,04,23,14,25,11.10
2009,04,23,14,26,11.10
2009,04,23,14,27,11.10
2009,04,23,14,28,11.00
2009,04,23,14,29,10.90
2009,04,23,14,30,10.90
2009,04,23,14,31,10.80
2009,04,23,14,32,10.70
2009,04,23,14,33,10.60
2009,04,23,14,34,10.60
2009,04,23,14,35,10.60
2009,04,23,14,36,10.60
2009,04,23,14,37,10.60
2009,04,23,14,38,10.60
2009,04,23,14,39,10.60
2009,04,23,14,40,10.60
2009,04,23,14,41,10.50
2009,04,23,14,42,10.40
2009,04,23,14,43,10.40
2009,04,23,14,44,10.40
2009,04,23,14,45,10.40
2009,04,23,14,46,10.40
2009,04,23,14,47,10.40
2009,04,23,14,48,10.50
2009,04,23,14,49,10.50
2009,04,23,14,50,10.40
2009,04,23,14,51,10.40
2009,04,23,14,52,10.40
2009,04,23,14,53,10.50
2009,04,23,14,54,10.40
2009,04,23,14,55,10.40
2009,04,23,14,56,10.60
2009,04,23,14,57,10.70
2009,04,23,14,58,10.70
2009,04,23,14,59,10.80
2009,04,23,15,00,10.90
2009,04,23,15,01,11.00
2009,04,23,15,02,11.10
2009,04,23,15,03,11.20
2009,04,23,15,04,11.40
2009,04,23,15,05,11.60
2009,04,23,15,06,11.60
2009,04,23,15,07,11.70
2009,04,23,15,08,11.70
2009,04,23,15,09,11.70
2009,04,23,15,10,11.60
2009,04,23,15,11,11.70
2009,04,23,15,12,11.60
2009,04,23,15,13,11.40
2009,04,23,15,14,11.30
2009,04,23,15,15,11.30
2009,04,23,15,16,11.20
2009,04,23,15,17,11.10
2009,04,23,15,18,11.10
2009,04,23,15,19,11.00
2009,04,23,15,20,10.90
2009,04,23,15,21,10.90
2009,04,23,15,22,10.90
2009,04,23,15,23,10.90
2009,04,23,15,24,10.90
2009,04,23,15,25,10.90
2009,04,23,15,26,10.90
2009,04,23,15,27,10.90
2009,04,23,15,28,10.90
2009,04,23,15,29,10.90
2009,04,23,15,30,10.90
2009,04,23,15,31,10.90
2009,04,23,15,32,10.90
2009,04,23,15,33,11.00
2009,04,23,15,34,11.10
2009,04,23,15,35,11.20
2009,04,23,15,36,11.20
2009,04,23,15,37,11.30
2009,04,23,15,38,11.30
2009,04,23,15,39,11.20
2009,04,23,15,40,11.40
2009,04,23,15,41,11.40
2009,04,23,15,42,11.40
2009,04,23,15,43,11.40
2009,04,23,15,44,11.60
2009,04,23,15,45,11.60
2009,04,23,15,46,11.80
2009,04,23,15,47,11.80
2009,04,23,15,48,11.80
2009,04,23,15,49,11.70
2009,04,23,15,50,11.80
2009,04,23,15,51,11.80
2009,04,23,15,52,11.70
2009,04,23,15,53,11.60
2009,04,23,15,54,11.50
2009,04,23,15,55,11.30
2009,04,23,15,56,11.20
2009,04,23,15,57,11.20
2009,04,23,15,58,11.10
2009,04,23,15,59,11.00
2009,04,23,16,00,10.90
2009,04,23,16,01,10.80
2009,04,23,16,02,10.80
2009,04,23,16,03,10.70
2009,04,23,16,04,10.70
2009,04,23,16,05,10.50
2009,04,23,16,06,10.40
2009,04,23,16,07,10.40
2009,04,23,16,08,10.30
2009,04,23,16,09,10.30
2009,04,23,16,10,10.30
2009,04,23,16,11,10.40
2009,04,23,16,12,10.50
2009,04,23,16,13,10.60
2009,04,23,16,14,10.60
2009,04,23,16,15,10.60
2009,04,23,16,16,10.70
2009,04,23,16,17,10.70
2009,04,23,16,18,10.80
2009,04,23,16,19,11.00
2009,04,23,16,20,11.20
2009,04,23,16,21,11.30
2009,04,23,16,22,11.40
2009,04,23,16,23,11.30
2009,04,23,16,24,11.30
2009,04,23,16,25,11.30
2009,04,23,16,26,11.40
2009,04,23,16,27,11.50
2009,04,23,16,28,11.60
2009,04,23,16,29,11.70
2009,04,23,16,30,11.80
2009,04,23,16,31,11.80
2009,04,23,16,32,11.90
2009,04,23,16,33,12.00
2009,04,23,16,34,12.00
2009,04,23,16,35,11.90
2009,04,23,16,36,12.00
2009,04,23,16,37,12.10
2009,04,23,16,38,12.10
2009,04,23,16,39,12.10
2009,04,23,16,40,12.20
2009,04,23,16,41,12.30
2009,04,23,16,42,12.30
2009,04,23,16,43,12.30
2009,04,23,16,44,12.30
2009,04,23,16,45,12.30
2009,04,23,16,46,12.30
2009,04,23,16,47,12.30
2009,04,23,16,48,12.30
2009,04,23,16,49,12.20
2009,04,23,16,50,12.20
2009,04,23,16,51,12.30
2009,04,23,16,52,12.30
2009,04,23,16,53,12.30
2009,04,23,16,54,12.20
2009,04,23,16,55,12.20
2009,04,23,16,56,12.10
2009,04,23,16,57,12.10
2009,04,23,16,58,12.30
2009,04,23,16,59,12.30
2009,04,23,17,00,12.30
2009,04,23,17,01,12.30
2009,04,23,17,02,12.30
2009,04,23,17,03,12.30
2009,04,23,17,04,12.10
2009,04,23,17,05,12.00
2009,04,23,17,06,11.90
2009,04,23,17,07,11.90
2009,04,23,17,08,11.90
2009,04,23,17,09,12.00
2009,04,23,17,10,12.10
2009,04,23,17,11,12.00
2009,04,23,17,12,12.00
2009,04,23,17,13,12.00
2009,04,23,17,14,11.90
2009,04,23,17,15,11.80
2009,04,23,17,16,11.80
2009,04,23,17,17,11.80
2009,04,23,17,18,11.80
2009,04,23,17,19,11.80
2009,04,23,17,20,11.80
2009,04,23,17,21,11.80
2009,04,23,17,22,11.80
2009,04,23,17,23,11.70
2009,04,23,17,24,11.60
2009,04,23,17,25,11.70
2009,04,23,17,26,11.80
2009,04,23,17,27,11.80
2009,04,23,17,28,11.80
2009,04,23,17,29,11.80
2009,04,23,17,30,11.80
2009,04,23,17,31,11.90
2009,04,23,17,32,12.00
2009,04,23,17,33,12.00
2009,04,23,17,34,12.10
2009,04,23,17,35,12.20
2009,04,23,17,36,12.30
2009,04,23,17,37,12.40
2009,04,23,17,38,12.40
2009,04,23,17,39,12.30
2009,04,23,17,40,12.10
2009,04,23,17,41,12.00
2009,04,23,17,42,12.00
2009,04,23,17,43,11.90
2009,04,23,17,44,11.80
2009,04,23,17,45,11.80
2009,04,23,17,46,11.80
2009,04,23,17,47,11.70
2009,04,23,17,48,11.70
2009,04,23,17,49,11.80
2009,04,23,17,50,11.80
2009,04,23,17,51,11.80
2009,04,23,17,52,11.90
2009,04,23,17,53,11.80
2009,04,23,17,54,11.80